COSMOS 1275 DEB, 39945

Orbit data source: Space-Track

COSMOS 1275 DEB, 39945 is space debris in LEO originally from a launch on Thu, 04 Jun 1981 UTC launched from the Plesetsk Missile And Space Complex (PKMTR). Debris objects in space refer to the collection of defunct objects orbiting the Earth. Examples of debris include non-operational satellites, rocket bodies, and fragments generated from explosions, collisions, or faulty payload assembly.

Loading next visibility...
Identifier
39945, 1981-053NF
Orbit
LEO
Country
Flag of CISCIS
Related business
Manufacturer
Unknown
Mission
Spacecraft
Bus & Motor
Unknown
Mass
Unknown
Launch date (UTC)
1981-06-04 (45 years ago)
Launch vehicle
Unknown
Launch site
Plesetsk Missile And Space Complex (PKMTR)
Object type
Payload
Rocket body
Debris
Shape & HBR
Unknown shape, 0.1 m
Radar Cross Section
Small (<0.1 m²)

Expand to show TLE details & history
Last TLE update: 3 days ago

TLE from 3 days ago
0 COSMOS 1275 DEB
1 39945U 81053NF  26035.21059563  .00000383  00000-0  34985-3 0  9990
2 39945  82.9544 308.0694 0040329  12.2983 141.8623 13.80439330587411
Epoch: 2026-02-04T05:03Z
TLE epoch observation values (Epoch: 2026-02-04T05:03:15.462Z)
Latitude
25.37787°
Longitude
-85.46905°
Altitude
988.738 km
Speed
7.348 km/s
True Right ascension
08h 18m 54s
True Declination
25° 14' 57"
Sunlit
Object was in full shadow at epoch
Visualization orbit readout
Latitude
Unknown
Longitude
Unknown
Altitude
Unknown
Speed
Unknown
Apparent Right ascension
Unknown
Apparent Declination
Unknown
Sunlit
N/A
Visualization observer readout
Local Sidereal Time
14:17:47
Azimuth
Unknown
Elevation
Unknown
Doppler factor
Unknown
Orbital elements
Apogee altitude
989.061 km
Perigee altitude
929.878 km
Semi-major axis
7,337.607 km
Eccentricity
0.00403
Inclination
82.9544°
RAAN
308.0694°
Arg. of periapsis
12.2983°
True anomaly
142.14657°
Mean anomaly
141.8623°
Eccentric anomaly
142.00455°
Mean motion
3.45312 °/min
Orbital period
104.25 mins
BSTAR
0.00034985
Loading maneuver chart data...
Computing Atmospheric mass density...
Loading historical data...
Loading historical data...
Loading historical data...
Loading historical data...
Loading historical data...
Loading historical data...
Loading historical data...

Documentation

Showing up to 5 results
|